Weather History for Chicago Lansing, IL

Change the Weather History Date:

Sunday, November 25, 2012

  Actual Average (KMDW) Record (KMDW)
Temperature  
Mean Temperature 35 °F 37 °F  
Max Temperature 44 °F 43 °F 61 °F (2006)
Min Temperature 26 °F 30 °F 0 °F (1950)
Degree Days  
Heating Degree Days 30 28  
Month to date heating degree days 558  
Since 1 July heating degree days 989  
Cooling Degree Days 0 0  
Month to date cooling degree days 0  
Year to date cooling degree days 1045  
Moisture  
Dew Point 24 °F    
Average Humidity 63    
Maximum Humidity 85    
Minimum Humidity 45    
Precipitation  
Precipitation 0.00 in 0.10 in 0.76 in (1979)
Month to date precipitation 2.87  
Year to date precipitation 35.97  
Sea Level Pressure  
Sea Level Pressure 29.93 in    
Wind  
Wind Speed 8 mph (West)    
Max Wind Speed 13 mph    
Max Gust Speed 17 mph    
Visibility 10 miles    
Events      
T = Trace of Precipitation, MM = Missing Value Source: NWS Daily Summary

Daily Weather History Graph

Daily Weather History Graph

Search for Another Location

Airport:

Trip Planner

Search our weather history database for the weather conditions in past years. The results will help you decide how hot, cold, wet, or windy it might be!

Date:

Astronomy

Nov. 25, 2012 Rise Set
Actual Time 6:51 AM CST 4:23 PM CST
Civil Twilight 6:20 AM CST 4:53 PM CST
Nautical Twilight 5:46 AM CST 5:27 PM CST
Astronomical Twilight 5:13 AM CST 6:00 PM CST
Moon 2:41 PM CST (11/25) 4:03 AM CST (11/25)
Length of Visible Light 10h 32m
Length of Day
9h 31m
Waxing Gibbous, 93% of the Moon is Illuminated
Nov 25
Waxing Gibbous
Nov 28
Full
Dec 6
Last Quarter
Dec 13
New
Dec 19
First Quarter

Hourly Weather History & Observations

Time (CST) Temp. Windchill Dew Point Humidity Pressure Visibility Wind Dir Wind Speed Gust Speed Precip Events Conditions
12:15 AM 28.4 °F 18.5 °F 21.7 °F 76% 30.00 in 10.0 mi South 11.5 mph - N/A   Overcast
12:35 AM 28.4 °F 18.5 °F 21.9 °F 77% 29.99 in 10.0 mi SSW 11.5 mph - N/A   Mostly Cloudy
12:55 AM 28.4 °F 18.5 °F 22.1 °F 77% 29.96 in 10.0 mi South 11.5 mph - N/A   Overcast
1:15 AM 28.9 °F 18.6 °F 22.5 °F 77% 29.95 in 10.0 mi South 12.7 mph 17.3 mph N/A   Mostly Cloudy
1:35 AM 29.1 °F 19.4 °F 22.6 °F 77% 29.96 in 10.0 mi SSW 11.5 mph 16.1 mph N/A   Mostly Cloudy
1:55 AM 29.1 °F 20.0 °F 22.8 °F 77% 29.95 in 10.0 mi South 10.4 mph - N/A   Overcast
2:15 AM 29.1 °F 18.9 °F 22.8 °F 77% 29.93 in 10.0 mi South 12.7 mph 17.3 mph N/A   Overcast
2:35 AM 29.3 °F 20.8 °F 23.0 °F 77% 29.92 in 10.0 mi South 9.2 mph - N/A   Overcast
2:55 AM 29.3 °F 19.6 °F 23.0 °F 77% 29.91 in 10.0 mi South 11.5 mph - N/A   Overcast
3:15 AM 29.7 °F 21.3 °F 23.0 °F 76% 29.90 in 10.0 mi South 9.2 mph - N/A   Overcast
3:35 AM 30.0 °F 21.7 °F 23.0 °F 75% 29.89 in 10.0 mi SSW 9.2 mph - N/A   Overcast
3:55 AM 30.2 °F 21.3 °F 23.0 °F 75% 29.89 in 10.0 mi SSW 10.4 mph - N/A   Overcast
4:15 AM 30.2 °F 21.9 °F 23.2 °F 75% 29.89 in 10.0 mi SSW 9.2 mph - N/A   Overcast
4:35 AM 30.7 °F 22.6 °F 23.5 °F 75% 29.89 in 10.0 mi SSW 9.2 mph - N/A   Overcast
4:55 AM 30.6 °F 22.4 °F 23.5 °F 75% 29.88 in 10.0 mi SSW 9.2 mph - N/A   Overcast
5:15 AM 29.8 °F 22.2 °F 23.5 °F 77% 29.88 in 10.0 mi South 8.1 mph - N/A   Scattered Clouds
5:35 AM 29.8 °F 22.2 °F 23.9 °F 79% 29.87 in 10.0 mi South 8.1 mph - N/A   Clear
5:55 AM 29.8 °F 22.2 °F 23.9 °F 79% 29.87 in 10.0 mi SSW 8.1 mph - N/A   Clear
6:15 AM 29.3 °F 21.5 °F 23.9 °F 80% 29.87 in 10.0 mi SSW 8.1 mph - N/A   Clear
6:35 AM 28.6 °F 22.4 °F 23.4 °F 81% 29.87 in 10.0 mi SSW 5.8 mph - N/A   Clear
6:55 AM 27.1 °F 20.7 °F 22.6 °F 83% 29.87 in 10.0 mi SSW 5.8 mph - N/A   Clear
7:15 AM 26.2 °F 19.6 °F 22.3 °F 85% 29.87 in 10.0 mi SSW 5.8 mph - N/A   Clear
7:35 AM 26.6 °F 20.0 °F 22.5 °F 84% 29.88 in 10.0 mi SSW 5.8 mph - N/A   Clear
7:55 AM 27.7 °F 21.3 °F 23.5 °F 84% 29.88 in 10.0 mi SW 5.8 mph - N/A   Clear
8:15 AM 30.2 °F 23.4 °F 24.1 °F 78% 29.88 in 10.0 mi SW 6.9 mph - N/A   Clear
8:35 AM 32.0 °F 24.2 °F 24.1 °F 73% 29.88 in 10.0 mi SW 9.2 mph - N/A   Clear
8:55 AM 33.8 °F 26.4 °F 24.8 °F 70% 29.88 in 10.0 mi WSW 9.2 mph - N/A   Clear
9:15 AM 35.1 °F 26.9 °F 23.9 °F 64% 29.88 in 10.0 mi WNW 11.5 mph - N/A   Clear
9:35 AM 36.5 °F 29.2 °F 23.7 °F 60% 29.88 in 10.0 mi NW 10.4 mph - N/A   Clear
9:55 AM 37.6 °F 31.6 °F 23.5 °F 57% 29.88 in 10.0 mi WNW 8.1 mph - N/A   Clear
10:15 AM 38.5 °F 32.7 °F 23.9 °F 56% 29.88 in 10.0 mi West 8.1 mph - N/A   Clear
10:35 AM 39.7 °F 34.3 °F 23.7 °F 53% 29.88 in 10.0 mi West 8.1 mph - N/A   Clear
10:55 AM 39.9 °F 33.9 °F 23.5 °F 52% 29.88 in 10.0 mi WNW 9.2 mph - N/A   Clear
11:15 AM 39.7 °F 34.9 °F 23.4 °F 52% 29.88 in 10.0 mi WNW 6.9 mph - N/A   Clear
11:35 AM 40.1 °F 35.3 °F 23.4 °F 51% 29.88 in 10.0 mi WNW 6.9 mph - N/A   Clear
11:55 AM 40.3 °F 35.5 °F 23.2 °F 51% 29.88 in 10.0 mi NW 6.9 mph - N/A   Clear
12:15 PM 41.0 °F 36.4 °F 23.4 °F 50% 29.87 in 10.0 mi WNW 6.9 mph - N/A   Clear
12:35 PM 41.9 °F 39.0 °F 23.7 °F 49% 29.88 in 10.0 mi WNW 4.6 mph - N/A   Clear
12:55 PM 42.1 °F 37.7 °F 24.1 °F 49% 29.88 in 10.0 mi West 6.9 mph - N/A   Clear
1:15 PM 42.8 °F 38.6 °F 23.9 °F 47% 29.88 in 10.0 mi WSW 6.9 mph - N/A   Clear
1:35 PM 43.3 °F 38.6 °F 23.7 °F 46% 29.87 in 10.0 mi West 8.1 mph - N/A   Clear
1:55 PM 44.1 °F 40.1 °F 23.9 °F 45% 29.88 in 10.0 mi WSW 6.9 mph - N/A   Clear
2:15 PM 43.7 °F 37.7 °F 23.9 °F 46% 29.88 in 10.0 mi West 11.5 mph - N/A   Clear
2:35 PM 44.6 °F 39.7 °F 24.8 °F 46% 29.88 in 10.0 mi West 9.2 mph - N/A   Clear
2:55 PM 43.9 °F 38.8 °F 23.5 °F 45% 29.88 in 10.0 mi WNW 9.2 mph - N/A   Clear
3:15 PM 43.0 °F 40.3 °F 23.7 °F 47% 29.89 in 10.0 mi NW 4.6 mph - N/A   Clear
3:35 PM 42.3 °F 38.6 °F 23.7 °F 48% 29.89 in 10.0 mi West 5.8 mph - N/A   Clear
3:55 PM 41.4 °F 37.6 °F 23.9 °F 50% 29.91 in 10.0 mi WNW 5.8 mph - N/A   Clear
4:15 PM 41.0 °F 37.1 °F 23.5 °F 50% 29.91 in 10.0 mi West 5.8 mph - N/A   Clear
4:35 PM 40.1 °F 38.0 °F 23.5 °F 52% 29.92 in 10.0 mi WNW 3.5 mph - N/A   Clear
4:55 PM 39.4 °F 37.2 °F 23.5 °F 53% 29.93 in 10.0 mi WNW 3.5 mph - N/A   Clear
5:15 PM 38.1 °F - 23.2 °F 55% 29.94 in 10.0 mi Calm Calm - N/A   Clear
5:35 PM 37.6 °F - 23.7 °F 57% 29.94 in 10.0 mi Calm Calm - N/A   Clear
5:55 PM 32.5 °F - 23.4 °F 69% 29.94 in 10.0 mi Calm Calm - N/A   Clear
6:15 PM 35.2 °F - 23.9 °F 63% 29.95 in 10.0 mi Calm Calm - N/A   Clear
6:35 PM 36.5 °F 33.9 °F 24.4 °F 62% 29.96 in 10.0 mi NW 3.5 mph - N/A   Clear
6:55 PM 37.4 °F - 24.1 °F 59% 29.97 in 10.0 mi Calm Calm - N/A   Clear
7:15 PM 37.0 °F - 23.9 °F 59% 29.98 in 10.0 mi Calm Calm - N/A   Clear
7:35 PM 37.0 °F 33.3 °F 23.9 °F 59% 29.99 in 10.0 mi NW 4.6 mph - N/A   Clear
7:55 PM 37.4 °F 32.8 °F 24.4 °F 60% 30.00 in 10.0 mi NW 5.8 mph - N/A   Clear
8:15 PM 37.6 °F 35.1 °F 24.1 °F 58% 30.00 in 10.0 mi NW 3.5 mph - N/A   Clear
8:35 PM 37.0 °F 34.5 °F 24.3 °F 60% 30.01 in 10.0 mi WNW 3.5 mph - N/A   Scattered Clouds
8:55 PM 37.6 °F 33.1 °F 23.9 °F 58% 30.01 in 10.0 mi NNW 5.8 mph - N/A   Mostly Cloudy
9:15 PM 37.6 °F 35.1 °F 23.7 °F 57% 30.01 in 10.0 mi NNW 3.5 mph - N/A   Mostly Cloudy
9:35 PM 37.4 °F 33.8 °F 23.7 °F 58% 30.02 in 10.0 mi NW 4.6 mph - N/A   Mostly Cloudy
9:55 PM 37.0 °F 34.5 °F 23.7 °F 59% 30.03 in 10.0 mi WNW 3.5 mph - N/A   Mostly Cloudy
10:15 PM 36.7 °F 34.1 °F 24.1 °F 60% 30.03 in 10.0 mi NW 3.5 mph - N/A   Overcast
10:35 PM 37.0 °F 34.5 °F 23.9 °F 59% 30.04 in 10.0 mi NW 3.5 mph - N/A   Overcast
10:55 PM 36.9 °F 34.3 °F 23.7 °F 59% 30.04 in 10.0 mi NNW 3.5 mph - N/A   Overcast
11:15 PM 36.5 °F 33.9 °F 23.9 °F 60% 30.05 in 10.0 mi NW 3.5 mph - N/A   Mostly Cloudy
11:35 PM 36.0 °F 33.3 °F 23.9 °F 62% 30.05 in 10.0 mi NW 3.5 mph - N/A   Overcast
11:55 PM 35.6 °F 32.8 °F 23.0 °F 60% 30.05 in 10.0 mi North 3.5 mph - N/A   Scattered Clouds